Simultaneous Nadir Overpasses (SNOs) Predictions

Prediction of SNOs between GOES-16 and NOAA-20 Satellite Orbit:

Table of predicted SNOs for the next 14.0 days since TLE Epoch: 11/29/2019
Index Date Time (GOES-16) GOES-16 Lat,Lon NOAA-20 Lat,Lon Distance(km) Time Diff (sec)
1 12/01/2019 06:31:59 -0.00, -75.22 0.26, -76.45 139.86 80
2 12/02/2019 06:10:34 -0.01, -75.23 -0.76, -71.92 377.35 80
3 12/03/2019 18:35:11 0.01, -75.25 -0.42, -77.22 224.79 80
4 12/04/2019 18:13:46 0.02, -75.26 0.60, -72.69 293.01 80
5 12/06/2019 06:38:13 -0.01, -75.28 0.60, -77.95 305.18 80
6 12/07/2019 06:16:49 -0.02, -75.29 -0.43, -73.42 213.00 80
7 12/08/2019 18:41:25 0.01, -75.32 -0.75, -78.73 387.87 80
8 12/09/2019 18:20:01 0.01, -75.34 0.27, -74.20 130.62 80
9 12/11/2019 06:44:28 0.00, -75.37 0.92, -79.46 466.64 80
10 12/12/2019 06:23:04 -0.00, -75.39 -0.10, -74.93 51.83 80




NCC Satellite Simultaneous Nadir Overpasses (SNOs) Prediction Service
